Terug naar catalogus

YAOGAN-36 04B

ActiefMilitairVLEO
NORAD 54748·PAYLOAD·🇨🇳 China

Gelanceerd Dec 14, 2022 vanaf Xichang Satellite Launch Center

Loading…

Volgende Passages (komende 24 uur)

TLE

VersSource: Space-Track

Epoch: Sep 14, 2026, 16:46 UTC

1 54748U 22171C   26257.69872867  .00008437  00000-0  35116-3 0  9997
2 54748  35.0031 352.0458 0006814 289.1484  70.8493 15.23002376209049

Volg YAOGAN-36 04B in realtime met AllMySat

Download on the App Store